リニア彗星

392P/LINEAR (2020)

English version
Home page
Updated on January 23, 2020

---------------------------------------------------------------------

・ プロフィール

符号 392P/2019 U3
検出日 2019年10月26日
検出光度 19.2等
検出者 K. Sarneczky (Konkoly Observatory)

・ 写真集

・ 軌道要素

Epoch 2020 Mar. 12.0 TT = JDT 2458920.5
T 2020 Mar. 31.84739 TT                                 Williams
q   1.9502340            (2000.0)            P               Q
n   0.06461661     Peri.   71.99620     -0.11838853     -0.99230863
a   6.1504457      Node    24.88834     +0.87543286     -0.12149332
e   0.6829118      Incl.    4.92936     +0.46861654     -0.02372669
P  15.3
From 354 observations 1989 Nov. 22-2019 Nov. 30, mean residual 0".6.

・ 光度変化

        m1 = 14.5 + 5 logΔ + 10.0 log r

---------------------------------------------------------------------

軌道要素はM.P.E.C. 2019-X94に掲載されたものです。
光度グラフはComet for Windowsで作成したものです。

---------------------------------------------------------------------

Copyright(C) Seiichi Yoshida (comet@aerith.net). All rights reserved.